Regional Weather Roundup
Issued by NWS

Home | Current Version | Previous Version | Text Only | Print | Product List | Glossary Off
Versions: 1 2 3 4 5 6 7 8 9 10 11 12 13 14 15 16 17 18 19 20 21 22 23 24 25 26 27 28 29 30 31 32 33 34 35 36 37 38 39 40 41 42 43 44 45 46 47 48 49 50

000
ASUS43 KDTX 221910
RWRMI
MICHIGAN HOURLY REGIONAL WEATHER ROUNDUP
NATIONAL WEATHER SERVICE DETROIT/PONTIAC MI
200 PM EST SUN JAN 22 2017

NOTE: "FAIR" INDICATES FEW OR NO CLOUDS BELOW 12,000 FEET WITH NO
SIGNIFICANT WEATHER AND/OR OBSTRUCTION TO VISIBILITY.

MIZ047>049-052>055-059>063-066>070-074>076-081>083-222000-
SOUTHEAST LOWER MICHIGAN

CITY           SKY/WX    TMP DP  RH WIND       PRES   REMARKS
ADRIAN         MOSUNNY   55  50  83 NE9       29.58F
ALMA           FOG       42  42  98 NW7       29.62F VSB 1/2
ANN ARBOR      CLOUDY    50  49  96 N5        29.59F
BAD AXE        FOG       47  47 100 CALM      29.63S VSB 1/2
CARO           FOG       47  46  97 N5        29.62S VSB 1/4
DETROIT CITY   FOG       48  48 100 NE5       29.61F VSB 1/4
DETROIT        FOG       49  49 100 N6        29.60F VSB 1/16
FLINT          FOG       49  47  93 N3        29.62S VSB 1
GROSSE ILE     FOG       47  47  99 NE8       29.59F VSB<1/4
HILLSDALE      CLOUDY    52  48  87 N5        29.57F
HOWELL         FOG       48  46  95 CALM      29.60F VSB 1/2

CITY           SKY/WX    TMP DP  RH WIND       PRES   REMARKS
JACKSON        CLOUDY    49  48  97 NE3       29.58F FOG
LAMBERTVILLE   MOSUNNY   60  51  71 E6        29.57F
LANSING        CLOUDY    43  40  89 N6        29.61F FOG
LAPEER         FOG       48  47  99 CALM      29.61F VSB 1/2
MASON          CLOUDY    46  46 100 CALM      29.59F FOG
MONROE         SUNNY     53  51  92 N9        29.57F
MT. CLEMENS    FOG       45  45 100 E3        29.60F VSB 1/16
PONTIAC        FOG       47  46  97 NW6       29.58F VSB 1/4
PORT HOPE        N/A     39  39 100 SE6       29.63F WCI  35
PORT HURON     FOG       46  46 100 E3        29.62F VSB 1/4
TRI CITIES     FOG       42  42 100 N6        29.63F VSB 1/16
MIDLAND        CLOUDY    44  43  97 CALM      29.62F FOG
TROY           FOG       47  46  95 NE5       29.62S VSB 1
SAGINAW HB     FOG       43  39  87 N6        29.62F VSB 1/4
$$
MIZ043>046-050>051-056>058-064>065-071>073-077>080-222000-
SOUTHWEST LOWER MICHIGAN

CITY           SKY/WX    TMP DP  RH WIND       PRES   REMARKS
BATTLE CREEK   FOG       44  44 100 N6        29.59F VSB 1
BENTON HARBOR  CLOUDY    43  41  93 N3        29.60F FOG
BIG RAPIDS     FOG       40  40  98 CALM      29.62S VSB 1/4
COLDWATER      CLOUDY    50  50 100 N6        29.58F
FREMONT        CLOUDY    42  42 100 CALM      29.61F
HOLLAND        CLOUDY    44  42  93 E7        29.62F
GRAND RAPIDS   FOG       41  39  93 N5        29.62F VSB 1/2
IONIA          FOG       39  39  99 N3        29.61F VSB 3/4
KALAMAZOO      FOG       41  39  93 N7        29.60F VSB 1
LUDINGTON      CLOUDY    41  41  99 W3        29.62F FOG
MARSHALL       FOG       46  45  98 CALM      29.58F VSB 1
MOUNT PLEASANT CLOUDY    41  41  99 CALM      29.62F FOG
MUSKEGON       CLOUDY    48  41  76 N3        29.61F
SOUTH HAVEN    CLOUDY    42  42 100 NE6       29.61F FOG
$$
MIZ016>042-222000-
NORTHERN LOWER MICHIGAN

CITY           SKY/WX    TMP DP  RH WIND       PRES   REMARKS
ALPENA         CLOUDY    44  41  89 CALM      29.64F FOG
BEAVER ISLAND  CLOUDY    40  40  98 SW5       29.64F
BELLAIRE       CLOUDY    43  41  93 CALM      29.63F
CADILLAC       CLOUDY    41  40  97 CALM      29.60F FOG
CHARLEVOIX     CLOUDY    41  41 100 SW3       29.67S
FRANKFORT      CLOUDY    42  40  93 SW5       29.62F FOG
GAYLORD        CLOUDY    44  38  79 SW5       29.61F
GRAYLING       CLOUDY    42  41  94 CALM      29.63S
HARBOR SPRINGS CLOUDY    43  41  95 W3        29.63F
HOUGHTON LAKE  CLOUDY    43  39  86 CALM      29.62F
MANISTEE       CLOUDY    41  40  96 W6        29.62F FOG
OSCODA         FOG       42  41  97 CALM      29.63S VSB 1/4
PELLSTON       FOG       40  38  93 CALM      29.64S VSB<1/4
ROGERS CITY    CLOUDY    40  38  96 CALM      29.65S FOG
TRAVERSE CITY  CLOUDY    44  39  82 CALM      29.61F
$$
MIZ007>008-015-222000-
EASTERN UPPER MICHIGAN

CITY           SKY/WX    TMP DP  RH WIND       PRES   REMARKS
KINROSS        LGT RAIN  36  36 100 E8        29.66R VSB 1/4 WCI  30
MACKINAC ISLAN FOG       36  36 100 E6        29.64S VSB<1/4 WCI  31
NEWBERRY       FOG       35  35  96 SE3       29.63S VSB 1/4
S. S. MARIE    CLOUDY    38  37  97 SE6       29.65S FOG     WCI  33
MUNISING         N/A     39  37  92 S6        29.61F WCI  35
$$
MIZ004>006-011>014-085-222000-
CENTRAL UPPER MICHIGAN

CITY           SKY/WX    TMP DP  RH WIND       PRES   REMARKS
MANISTIQUE     FOG       36  36  99 CALM      29.62F VSB<1/4
ESCANABA       CLOUDY    37  36  96 E3        29.63S
SAWYER-GWINN   CLOUDY    36  36 100 CALM      29.61S
$$
MIZ001>003-009>011-084-222000-
WESTERN UPPER MICHIGAN

CITY           SKY/WX    TMP DP  RH WIND       PRES   REMARKS
IRON MOUNTAIN  CLOUDY    38  34  85 CALM      29.59F
HOUGHTON       FOG       35  34  96 W6        29.60S VSB<1/4 WCI  30
COPPER HARBOR    N/A     37  36  96 CALM      29.61S
IRONWOOD       FOG       36  36 100 NW6       29.65R VSB 1   WCI  31
$$

ABBREVIATIONS USED IN REMARKS
   TC - TEMPERATURE IN CELSIUS
  WCI - WIND CHILL INDEX
   HX - HEAT INDEX
  VSB - VISIBILITY





USA.gov is the U.S. government's official web portal to all federal, state and local government web resources and services.